Location: Unspecified
(0.0000°N, 0.0000°E)
Time: 05:48:25
(UTC+00:00)

Altair - Pass Details

Date: 30 May 2026
Orbit: 1501 x 1682 km, 47.2° (Epoch: 8 June)

Event Time Altitude Azimuth Distance (km) Brightness Sun altitude
Rises 19:52:38 0° 195° (SSW) 4,637 9.9 -26.5°
Reaches altitude 10° 19:56:35 10° 180° (S) 3,651 9.2 -27.4°
Enters shadow 19:56:57 11° 179° (S) 3,571 9.2 -27.5°
